Flag for Canada Weather past 2 weeks in Québec, Quebec, Canada

Now
50 °F

Partly sunny.


Feels Like: 45 °F
Forecast: 36 / 54 °F
Wind: 13 mph from Northwest

Location: Quebec Weather Station

Current Time: Sep 18, 2014 at 2:34:19 PM

Latest Report: Sep 18, 2014 at 1:00 PM


Visibility: 30 mi

Pressure: 30.06 "Hg

Humidity: 50%

Dew point: 32 °F

Location of QuébecLocation

Historic Weather in Québec — Graph

°F

Québec temperature yesterday

Maximum temperature yesterday: 52 °F (at 10:00 AM)
Minimum temperature yesterday: 45 °F (at 12:00 AM)
Average temperature yesterday: 49 °F

Past Weeks' High & Low Weather Summary

 TemperatureHumidityPressure
High84 °F (Sep 5, 3:00 PM)100% (Sep 6, 4:00 AM)30.41 "Hg (Sep 6, 4:00 AM)
Low41 °F (Sep 13, 2:00 AM)43% (Sep 7, 2:00 PM)29.49 "Hg (Sep 11, 4:00 PM)
Average57 °F78%30.03 "Hg
* Reported Sep 3 1:00 PM — Sep 18 1:00 PM, Québec, Weather by CustomWeather, © 2014

Note: Actual official high and low records may vary slightly from our data, if they occured in-between our weather recording intervals... More about our weather records

Advertising

Québec weather history for previous 24 hours

 ConditionsComfort  
Time TempWeatherWind HumidityBarometerVisibility
1:00 PM
Sep 18
50 °FPartly sunny.13 mph50%30.06 "Hg30 mi
12:00 PM50 °FPartly sunny.10 mph50%30.05 "Hg30 mi
11:00 AM50 °FScattered clouds.14 mph54%30.04 "Hg30 mi
10:00 AM48 °FPassing clouds.10 mph62%30.04 "Hg30 mi
9:00 AM46 °FPassing clouds.10 mph71%30.02 "Hg30 mi
8:00 AM45 °FPassing clouds.6 mph76%29.99 "Hg30 mi
7:00 AM43 °FPassing clouds.9 mph81%29.97 "Hg30 mi
6:00 AM45 °FPartly cloudy.6 mph87%29.94 "Hg15 mi
5:00 AM46 °FPartly cloudy.5 mph87%29.91 "Hg15 mi
4:00 AM48 °FMostly cloudy.6 mph94%29.90 "Hg10 mi
3:00 AM48 °FLight rain. Mostly cloudy.2 mph94%29.89 "Hg10 mi
2:00 AM48 °FLight rain. Mostly cloudy.2 mph94%29.90 "Hg10 mi
1:00 AM48 °FRain. Fog.5 mph94%29.88 "Hg5 mi
12:00 AM48 °FSprinkles. Fog.10 mph100%29.89 "Hg5 mi
11:00 PM
Sep 17
50 °FSprinkles. Fog.No wind94%29.90 "Hg6 mi
10:00 PM50 °FSprinkles. Fog.3 mph94%29.90 "Hg6 mi
9:00 PM50 °FSprinkles. Mostly cloudy.No wind94%29.92 "Hg6 mi
8:46 PM50 °FSprinkles. Low clouds.3 mph94%29.92 "Hg6 mi
8:00 PM50 °FSprinkles. Mostly cloudy.3 mph94%29.91 "Hg6 mi
7:00 PM50 °FSprinkles. More clouds than sun.3 mph94%29.91 "Hg6 mi
6:00 PM52 °FSprinkles. More clouds than sun.No wind82%29.92 "Hg6 mi
5:00 PM52 °FMore clouds than sun.3 mph88%29.93 "Hg30 mi
4:00 PM52 °FOvercast.5 mph88%29.94 "Hg30 mi
3:00 PM50 °FLow clouds.6 mph88%29.94 "Hg15 mi
2:00 PM52 °FSprinkles. Overcast.7 mph82%29.95 "Hg15 mi
Weather by CustomWeather, © 2014

See weather overviewHow to use our weather pages